Zurück zum Katalog

FENGYUN 1C DEB

AktivSSO
NORAD 38116·DEBRIS·🇨🇳 China

Gestartet May 10, 1999 von Taiyuan Satellite Launch Center

Loading…

Nächste Überflüge (nächste 24 Stunden)

TLE

AktuellSource: Space-Track

Epoche: Sep 14, 2026, 22:29 UTC

1 38116U 99025EPM 26257.93747865  .00000358  00000-0  19235-3 0  9994
2 38116  98.6853 295.7707 0072014  75.3967  44.9670 14.17487770683977

Verfolge FENGYUN 1C DEB in Echtzeit mit AllMySat

Download on the App Store